User: anonymous   Login
Location: Cajon Junction
(34.3117°N, 117.4748°W)
Time: 12:03:04
(UTC+00:00)
Language:

COSMO-SKYMED 1 - Orbit

View from above orbital plane
View from above orbital plane
View from above satellite
View from above satellite

Ground track
Ground track

The orbit data is extracted from the following two-line orbital elements,

1 31598U 07023A   24167.92073739  .00000848  00000-0  11314-3 0  9991
2 31598  97.8868 351.0841 0001586  90.5385 269.6010 14.82150379920933
Epoch (UTC): 15 June 2024 22:05:51
Eccentricity: 0.0001586
inclination: 97.8868°
perigee height: 621 km
apogee height: 623 km
right ascension of ascending node: 351.0841°
argument of perigee: 90.5385°
revolutions per day: 14.82150379
mean anomaly at epoch: 269.6010°
orbit number at epoch: 92093

The dashed part of the orbit path shows where the satellite is in the earth's shadow,  

DLR